Weather History for KLTS - September, 2013

Change the Weather History Date:

Thursday, September 12, 2013

  Actual Average Record
Temperature  
Mean Temperature 82 °F -  
Max Temperature 98 °F 86 °F 104 °F (2011)
Min Temperature 67 °F 64 °F 51 °F (2007)
Cooling Degree Days 16    
Growing Degree Days 32 (Base 50)    
Moisture  
Dew Point 59 °F    
Average Humidity 49    
Maximum Humidity 78    
Minimum Humidity 26    
Precipitation  
Precipitation 0.00 in - - ()
Sea Level Pressure  
Sea Level Pressure 30.02 in    
Wind  
Wind Speed 5 mph (ESE)    
Max Wind Speed 13 mph    
Max Gust Speed -    
Visibility 10 miles    
Events      
Averages and records for this station are not official NWS values.
T = Trace of Precipitation, MM = Missing Value Source: NWS Daily Summary

Daily Weather History Graph

Daily Weather History Graph

Search for Another Location

Airport or City:

Trip Planner

Search our weather history database for the weather conditions in past years. The results will help you decide how hot, cold, wet, or windy it might be!

Date:

Astronomy

Sep. 12, 2013 Rise Set
Actual Time 7:18 AM CDT 7:47 PM CDT
Civil Twilight 6:52 AM CDT 8:13 PM CDT
Nautical Twilight 6:23 AM CDT 8:42 PM CDT
Astronomical Twilight 5:52 AM CDT 9:12 PM CDT
Moon 2:31 PM CDT (9/12) 12:02 AM CDT (9/12)
Length of Visible Light 13h 20m
Length of Day
12h 29m
Waxing Crescent, 50% of the Moon is Illuminated
Sep 12
Waxing Crescent
Sep 12
First Quarter
Sep 19
Full
Sep 26
Last Quarter
Oct 4
New

Hourly Weather History & Observations

Time (CDT) Temp. Heat Index Dew Point Humidity Pressure Visibility Wind Dir Wind Speed Gust Speed Precip Events Conditions
12:58 AM 74.1 °F - 57.9 °F 57% 30.02 in 10.0 mi East 2.3 mph - N/A   Clear
1:58 AM 73.8 °F - 58.5 °F 59% 30.02 in 10.0 mi ESE 6.9 mph - N/A   Clear
2:58 AM 72.1 °F - 58.6 °F 62% 30.02 in 10.0 mi East 4.6 mph - N/A   Clear
3:58 AM 71.1 °F - 59.0 °F 66% 30.04 in 10.0 mi East 4.6 mph - N/A   Clear
4:58 AM 68.9 °F - 59.0 °F 71% 30.02 in 10.0 mi ENE 4.6 mph - N/A   Clear
5:58 AM 68.7 °F - 59.9 °F 73% 30.04 in 10.0 mi ENE 4.6 mph - N/A   Clear
6:58 AM 67.5 °F - 60.4 °F 78% 30.05 in 10.0 mi ENE 4.6 mph - N/A   Clear
7:58 AM 69.4 °F - 61.2 °F 75% 30.07 in 10.0 mi ENE 5.8 mph - N/A   Clear
8:58 AM 77.5 °F - 63.0 °F 61% 30.08 in 10.0 mi East 3.5 mph - N/A   Clear
9:58 AM 81.7 °F 82.3 °F 60.8 °F 49% 30.09 in 10.0 mi SSE 3.5 mph - N/A   Clear
10:58 AM 86.9 °F 86.3 °F 59.4 °F 39% 30.09 in 10.0 mi South 4.6 mph - N/A   Clear
11:58 AM 90.0 °F 89.4 °F 59.5 °F 36% 30.07 in 10.0 mi Calm Calm - N/A   Clear
12:58 PM 92.5 °F 91.9 °F 59.2 °F 33% 30.05 in 10.0 mi Variable 4.6 mph - N/A   Clear
1:58 PM 93.4 °F 92.2 °F 57.9 °F 30% 30.02 in 10.0 mi SSE 8.1 mph - N/A   Partly Cloudy
2:58 PM 95.7 °F 95.1 °F 58.3 °F 29% 29.99 in 10.0 mi SE 6.9 mph - N/A   Partly Cloudy
3:58 PM 95.2 °F 93.9 °F 57.7 °F 28% 29.96 in 10.0 mi East 4.6 mph - N/A   Clear
4:58 PM 94.6 °F 93.2 °F 56.8 °F 28% 29.94 in 10.0 mi SE 4.6 mph - N/A   Clear
5:58 PM 96.1 °F 94.5 °F 56.5 °F 26% 29.94 in 10.0 mi SE 4.6 mph - N/A   Partly Cloudy
6:58 PM 93.9 °F 92.6 °F 56.8 °F 29% 29.95 in 10.0 mi ESE 8.1 mph - N/A   Scattered Clouds
7:58 PM 88.2 °F 88.1 °F 61.3 °F 40% 29.96 in 10.0 mi East 12.7 mph - N/A   Clear
8:58 PM 85.5 °F 85.9 °F 61.7 °F 45% 29.97 in 10.0 mi East 11.5 mph - N/A   Scattered Clouds
9:58 PM 83.3 °F 84.1 °F 62.1 °F 49% 29.99 in 10.0 mi East 12.7 mph - N/A   Mostly Cloudy
10:58 PM 81.5 °F 82.7 °F 62.8 °F 53% 30.00 in 10.0 mi ENE 6.9 mph - N/A   Overcast